CW3185 Weather Reports


time (UTC)temp
C
wind
direction
speed
KPH
gust
KPH
rain 1hr
cm
rain 24hr
cm
rain mn
cm
humidity
%
barometer
mb
20260507223503 10 98 1.6 11.3 0.00 0.03 0.03 79 1011.3
20260507223004 10 87 0.0 14.5 0.00 0.03 0.03 79 1011.3
20260507220504 10 70 0.0 3.2 0.00 0.03 0.03 78 1011.2
20260507220004 10 75 0.0 0.0 0.00 0.03 0.03 79 1011.3
20260507213004 10 98 0.0 1.6 0.00 0.03 0.03 78 1011.3
20260507210504 10 87 0.0 0.0 0.00 0.03 0.03 77 1011.3
20260507210005 10 76 0.0 11.3 0.00 0.03 0.03 77 1011.3
20260507203504 10 100 0.0 0.0 0.00 0.03 0.03 77 1011.3
20260507203005 10 77 0.0 1.6 0.00 0.03 0.03 77 1011.3
20260507200504 10 100 0.0 0.0 0.00 0.03 0.03 78 1011.1
20260507200004 10 115 0.0 0.0 0.00 0.03 0.03 78 1011.1
20260507193504 11 175 0.0 0.0 0.00 0.03 0.03 79 1010.9
20260507193005 11 175 0.0 0.0 0.00 0.03 0.03 78 1010.8
20260507190504 11 124 0.0 0.0 0.00 0.03 0.03 77 1010.8
20260507190005 11 125 0.0 0.0 0.00 0.03 0.03 78 1010.8
20260507183504 11 161 0.0 0.0 0.00 0.03 0.03 78 1010.8
20260507183004 11 161 0.0 0.0 0.00 0.03 0.03 78 1010.8
20260507180504 11 132 0.0 0.0 0.00 0.03 0.03 78 1010.8
20260507180005 11 71 0.0 0.0 0.00 0.03 0.03 78 1010.7
20260507173504 12 117 0.0 0.0 0.00 0.03 0.03 77 1010.6
20260507170504 10 118 0.0 0.0 0.00 0.03 0.03 81 1010.7
20260507170004 10 105 0.0 1.6 0.00 0.03 0.03 81 1010.8
20260507163004 9 85 0.0 19.3 0.03 0.03 0.03 80 1010.8
20260507160504 9 75 0.0 1.6 0.03 0.03 0.03 77 1011.0
20260507160006 9 82 0.0 32.2 0.03 0.03 0.03 79 1010.9
20260507153504 9 58 3.2 19.3 0.00 0.00 0.00 80 1011.0
20260507153004 10 77 3.2 25.7 0.00 0.00 0.00 80 1011.3
20260507150504 10 112 0.0 1.6 0.00 0.00 0.00 79 1011.3
20260507150004 10 84 4.8 24.1 0.00 0.00 0.00 77 1011.4
20260507143004 12 78 0.0 20.9 0.00 0.00 0.00 70 1011.3
20260507140504 12 86 0.0 4.8 0.00 0.00 0.00 69 1011.3
20260507140005 12 62 0.0 8.0 0.00 0.00 0.00 69 1011.3
20260507133505 12 76 0.0 0.0 0.00 0.00 0.00 72 1011.4
20260507130504 12 76 0.0 1.6 0.00 0.00 0.00 74 1011.7
20260507130004 11 77 0.0 19.3 0.00 0.00 0.00 74 1011.9
20260507123004 11 70 1.6 16.1 0.00 0.00 0.00 74 1011.9
20260507120504 11 91 1.6 11.3 0.00 0.00 0.00 75 1012.0
20260507113006 10 115 0.0 19.3 0.00 0.00 0.00 75 1012.3
20260507110504 10 77 0.0 19.3 0.00 0.00 0.00 74 1012.3
20260507110005 10 80 0.0 8.0 0.00 0.00 0.00 74 1012.3
20260507103504 10 86 0.0 0.0 0.00 0.00 0.00 72 1012.4
20260507103004 10 91 0.0 0.0 0.00 0.00 0.00 72 1012.4
20260507100504 11 104 0.0 0.0 0.00 0.00 0.00 68 1012.2
20260507100005 11 91 0.0 0.0 0.00 0.00 0.00 69 1012.2
20260507093504 11 127 0.0 0.0 0.00 0.00 0.00 70 1012.4
20260507093004 11 301 0.0 0.0 0.00 0.00 0.00 71 1012.4
20260507090005 11 121 0.0 0.0 0.00 0.00 0.00 71 1012.4
20260507083504 10 98 0.0 0.0 0.00 0.00 0.00 71 1012.5
20260507083004 10 169 0.0 0.0 0.00 0.00 0.00 70 1012.5
20260507073504 8 123 0.0 0.0 0.00 0.00 0.00 73 1012.8
20260507073005 8 162 0.0 0.0 0.00 0.00 0.00 75 1012.8
20260507070504 8 202 0.0 0.0 0.00 0.00 0.00 77 1012.8
20260507070009 8 219 0.0 0.0 0.00 0.00 0.00 77 1012.8
20260507063504 7 194 0.0 0.0 0.00 0.00 0.00 82 1012.8
20260507060004 6 222 0.0 0.0 0.00 0.00 0.00 81 1012.7
20260507053504 6 228 0.0 0.0 0.00 0.00 0.00 81 1012.8
20260507050504 6 222 0.0 0.0 0.00 0.00 0.00 80 1012.9
20260507043504 6 213 0.0 0.0 0.00 0.00 0.00 78 1012.9
20260507043005 6 223 0.0 0.0 0.00 0.00 0.00 79 1012.9
20260507040504 6 226 0.0 0.0 0.00 0.00 0.00 79 1012.8
20260507040004 6 226 0.0 0.0 0.00 0.00 0.00 79 1012.9
20260507033504 6 226 0.0 0.0 0.00 0.00 0.00 79 1012.9
20260507033004 6 226 0.0 0.0 0.00 0.00 0.00 79 1012.9
20260507030504 6 195 0.0 0.0 0.00 0.00 0.00 78 1013.0
20260507030004 6 195 0.0 0.0 0.00 0.00 0.00 78 1013.0
20260507023505 6 275 0.0 0.0 0.00 0.00 0.00 78 1013.2
20260507023004 6 275 0.0 0.0 0.00 0.00 0.00 78 1013.3
20260507020504 6 214 0.0 0.0 0.00 0.00 0.00 78 1013.3
20260507020004 6 234 0.0 0.0 0.00 0.00 0.00 78 1013.3
20260507013505 6 178 0.0 0.0 0.00 0.00 0.00 76 1013.4
20260507013005 6 261 0.0 0.0 0.00 0.00 0.00 76 1013.4
20260507010504 6 172 0.0 0.0 0.00 0.00 0.00 75 1013.5
20260507010005 6 182 0.0 0.0 0.00 0.00 0.00 75 1013.5
20260507003505 7 112 0.0 0.0 0.00 0.00 0.00 74 1013.5
20260507003005 7 159 0.0 0.0 0.00 0.00 0.00 74 1013.6
20260507000505 7 238 0.0 0.0 0.00 0.00 0.00 73 1013.9
20260507000005 7 227 0.0 0.0 0.00 0.00 0.00 73 1013.9